Starlink 32042

operational
NORAD ID: 60108 Int'l Des: 2024-117 Owner: SPXS Country: US Constellation: starlink
LEOCIRCULAR

Starlink 32042について

説明を読み込み中...

リアルタイム位置

3D地球を読み込み中...

次回通過

高度履歴

Altitude vs Time

uPlot chart will show altitude changes over time

軌道要素

1 60108U 24117T 25304.13713579 .00002074 00000-0 82155-4 0 9998
2 60108 53.1611 278.7210 0002989 143.8580 216.2623 15.30202084 77054
Epoch: Oct 31, 2025 • Age: 17 hours

現在のステータス

高度 477.6 km
速度 7.63 km/s
衛星直下点 30.86°N, 49.22°W
打ち上げ日 Jun 23, 2024
運用期間 1.3 years
タイプ internet

技術仕様

分類 Payload
質量 730.00 kg
乾燥質量 700.00 kg
総質量 730.00 kg
長さ 0.30 m
直径 4.10 m
スパン 29.00 m
形状 Box + pan
製造者 SPXS
バスタイプ Starlink V2M
フェーズステータス In Orbit
所有者/国 SPXS/US

大規模コンステレーション

Loading constellations...